Location: Angwan Shehu
(11.2514°N, 7.4613°E)
Time: 23:58:15
(UTC+00:00)

Cosmos 1400 Rocket - Pass Details

Date: 14 November 2019
Orbit: 522 x 568 km, 81.2° (Epoch: 06 December)

Event Time Altitude Azimuth Distance (km) Brightness Sun altitude
Rises 18:15:53 0° 171° (S) 2,704 6.4 -17.9°
Reaches altitude 10° 18:18:08 10° 163° (SSE) 1,820 5.5 -18.4°
Enters shadow 18:21:06 35° 123° (ESE) 906 3.5 -19.1°
